Location: ??????
(30.0081°N, 31.2109°E)
Time: 07:48:37
(UTC+00:00)

CZ-2C R/B - Pass Details

Date: 03 March 2021
Orbit: 783 x 871 km, 98.2° (Epoch: 15 April)

Event Time Altitude Azimuth Distance (km) Brightness Sun altitude
Rises 16:23:54 0° 21° (NNE) 3,396 5.6 -6.9°
Reaches altitude 10° 16:26:25 10° 28° (NNE) 2,445 4.8 -7.5°
Maximum altitude 16:31:32 43° 99° (E) 1,144 3.0 -8.6°
Drops below altitude 10° 16:36:30 10° 170° (S) 2,378 5.0 -9.6°
Sets 16:38:55 0° 177° (S) 3,294 5.8 -10.2°
